This demonstration page uses our WeatherBlox Daily Observations layout. Learn more.

38.88101, -77.10428

Hourly Observations for August 30, 2015

Temp ( °F °C ) Dew Point ( °F °C ) Humidity (%) Winds ( mph kmh ) Pressure ( in mb ) Visibility ( mi km ) Precip ( " mm )
12:52 am 00:52 Mostly Cloudy 74 23.3 64 17.8 71 71 S 12 19 30.12 1020 10 16.0934 0 0
1:52 am 01:52 Mostly Cloudy 72 22.2 64 17.8 76 76 S 8 13 30.11 1020 10 16.0934 0 0
2:52 am 02:52 Mostly Cloudy 71 21.7 64 17.8 79 79 S 9 15 30.1 1019 10 16.0934 0 0
3:52 am 03:52 Mostly Cloudy 71 21.7 64 17.8 79 79 S 9 15 30.1 1019 10 16.0934 0 0
4:52 am 04:52 Mostly Cloudy 70 21.1 64 17.8 82 82 SSW 7 11 30.1 1019 10 16.0934 0 0
5:52 am 05:52 Mostly Cloudy 69 20.6 64 17.8 84 84 SSW 5 7 30.11 1020 10 16.0934 0 0
6:52 am 06:52 Mostly Cloudy 69 20.6 64 17.8 84 84 SSW 5 7 30.12 1020 10 16.0934 0 0
7:52 am 07:52 Mostly Cloudy 71 21.7 64 17.8 79 79 SSW 8 13 30.13 1020 10 16.0934 0 0
8:52 am 08:52 Cloudy 73 22.8 64 17.8 74 74 SW 7 11 30.13 1020 10 16.0934 0 0
9:52 am 09:52 Cloudy 74 23.3 64 17.8 71 71 SSW 5 7 30.14 1021 10 16.0934 0 0
10:52 am 10:52 Cloudy 76 24.4 65 18.3 69 69 SSW 6 9 30.14 1021 10 16.0934 0 0
11:52 am 11:52 Cloudy 77 25 67 19.4 71 71 S 8 13 30.14 1021 10 16.0934 0 0
12:52 pm 12:52 Cloudy 79 26.1 67 19.4 67 67 S 7 11 30.13 1020 10 16.0934 0 0
1:52 pm 13:52 Mostly Cloudy 82 27.8 68 20 63 63 S 8 13 30.11 1020 10 16.0934 0 0
2:52 pm 14:52 Mostly Cloudy 85 29.4 68 20 57 57 S 7 11 30.09 1019 10 16.0934 0 0
3:52 pm 15:52 Mostly Cloudy 86 30 65 18.3 49 49 SSE 7 11 30.07 1018 10 16.0934 0 0
4:52 pm 16:52 Mostly Cloudy 86 30 67 19.4 53 53 S 10 17 30.06 1018 10 16.0934 0 0
5:52 pm 17:52 Cloudy 86 30 66 18.9 51 51 SW 8 13 30.07 1018 10 16.0934 0 0
6:52 pm 18:52 Cloudy 83 28.3 67 19.4 59 59 S 8 13 30.06 1018 10 16.0934 0 0
7:52 pm 19:52 Cloudy 81 27.2 70 21.1 69 69 S 6 9 30.06 1018 10 16.0934 0 0
8:52 pm 20:52 Cloudy 80 26.7 70 21.1 71 71 S 9 15 30.08 1019 10 16.0934 0 0
9:52 pm 21:52 Cloudy 80 26.7 67 19.4 64 64 S 10 17 30.09 1019 10 16.0934 0 0
10:52 pm 22:52 Cloudy 80 26.7 67 19.4 64 64 S 9 15 30.09 1019 10 16.0934 0 0
11:52 pm 23:52 Cloudy 79 26.1 66 18.9 65 65 SSW 9 15 30.08 1019 10 16.0934 0 0

Powered by AerisWeather